DRAUGEN current weather conditions

sailwx.info

Wind from 170 at 11 knots

Air temperature 11.0° C
Visibility: greater than 5.4 NM
Dewpoint 10.0° C
Present weather: Light drizzle.

Last reported at 2014-Oct-20 09:10 UTC.
Time now 2014-Oct-20 11:22 UTC

Location: N 64°22' E 007°47'.
View on Google Maps.

See reports from other nearby stations

  
Tides and Currents Weather Stations Pressure Air Temp Water Temp Dewpoint Dewpoint Depression Visibility Wind Speed Wind Dir Waves Ship Positions
date/time (UTC)wind fromknots sea level pressurealtimeterstation pressurevisibilityair tempwater tempwave heightnotes
2014-Oct-20 10:20 210 15 11.0
2014-Oct-20 09:50 190 12 11.0
2014-Oct-20 09:10 170 11 5.411.0 Light drizzle.
2014-Oct-20 08:50 170 10 10.0
2014-Oct-20 08:20 160 11 11.0
2014-Oct-20 07:50 220 9 10.0
2014-Oct-20 07:20 100 5 10.0
2014-Oct-20 06:50 080 7 10.0
2014-Oct-20 06:10 150 7 5.410.0
2014-Oct-20 05:50 150 7 10.0
2014-Oct-20 05:20 140 8 10.0
2014-Oct-20 04:50 150 10 10.0
2014-Oct-20 03:20 130 12 10.0
2014-Oct-20 02:50 10.0
2014-Oct-20 02:20 140 15 10.0
2014-Oct-20 01:50 140 14 10.0
2014-Oct-20 01:20 140 15 10.0
2014-Oct-20 00:50 120 16 10.0
2014-Oct-20 00:20 110 17 10.0
2014-Oct-19 23:50 120 17 10.0
2014-Oct-19 23:20 110 16 11.0
2014-Oct-19 22:50 120 15 11.0
2014-Oct-19 22:20 120 15 11.0
2014-Oct-19 21:50 120 17 11.0
2014-Oct-19 21:20 120 15 11.0
2014-Oct-19 20:50 100 16 11.0
2014-Oct-19 20:20 090 17 11.0
2014-Oct-19 19:50 100 15 11.0
2014-Oct-19 19:20 090 10 11.0
2014-Oct-19 18:50 100 11 11.0
2014-Oct-19 18:20 100 13 11.0
2014-Oct-19 17:50 100 14 11.0
2014-Oct-19 17:20 100 13 11.0
2014-Oct-19 16:50 100 12 10.0
2014-Oct-19 16:20 090 8 10.0
2014-Oct-19 15:50 100 7 10.0
2014-Oct-19 15:10 080 3 5.410.0 Light rain. Showers in the vicinity.
2014-Oct-19 14:50 220 3 10.0
2014-Oct-19 14:20 210 6 10.0
2014-Oct-19 13:50 210 6 10.0
2014-Oct-19 13:20 180 10 10.0
2014-Oct-19 12:50 160 18 10.0
2014-Oct-19 12:20 160 20 10.0
2014-Oct-19 11:50 150 20 10.0
2014-Oct-19 11:20 170 16 10.0
2014-Oct-19 10:50 130 20 10.0
2014-Oct-19 10:20 130 23 10.0
2014-Oct-19 09:50 130 22 11.0
2014-Oct-19 09:10 160 13 4.911.0 Light rain. Fog in the vicinity.
2014-Oct-19 08:50 210 11 11.0
2014-Oct-19 08:20 200 15 11.0
2014-Oct-19 07:50 200 9 11.0
2014-Oct-19 07:20 210 12 11.0
2014-Oct-19 06:50 230 13 12.0
2014-Oct-19 06:20 240 17 2.711.0 Fog in the vicinity.
2014-Oct-19 05:50 220 17 11.0
2014-Oct-19 05:20 230 14 11.0
2014-Oct-19 04:50 220 15 11.0
2014-Oct-19 04:20 220 17 11.0
2014-Oct-19 03:50 220 17 11.0
2014-Oct-19 03:20 230 18 11.0
2014-Oct-19 02:50 220 19 11.0
2014-Oct-19 02:20 220 19 11.0
2014-Oct-19 01:50 220 19 11.0
2014-Oct-19 01:20 220 20 11.0
2014-Oct-19 00:50 210 24 11.0
2014-Oct-19 00:20 210 22 11.0
2014-Oct-18 23:50 180 14 10.0
2014-Oct-18 23:20 150 14 10.0
2014-Oct-18 22:50 140 17 9.0
2014-Oct-18 22:20 130 20 9.0
2014-Oct-18 21:50 120 22 9.0
2014-Oct-18 21:20 110 19 8.0
2014-Oct-18 20:50 120 20 8.0
2014-Oct-18 20:20 120 22 9.0
2014-Oct-18 19:50 110 23 9.0
2014-Oct-18 19:20 110 24 8.0
2014-Oct-18 18:50 110 27 8.0
2014-Oct-18 18:20 110 27 9.0
2014-Oct-18 17:50 100 33 9.0
2014-Oct-18 17:20 100 33 9.0
2014-Oct-18 16:50 090 31 9.0
2014-Oct-18 16:20 100 29 9.0
2014-Oct-18 15:50 100 27 8.0
2014-Oct-18 15:20 090 27 8.0
2014-Oct-18 14:50 090 27 8.0
2014-Oct-18 14:20 090 25 8.0
2014-Oct-18 13:50 090 24 8.0
2014-Oct-18 13:20 090 22 8.0
2014-Oct-18 12:50 100 20 8.0
2014-Oct-18 12:20 100 19 7.0
2014-Oct-18 11:50 100 17 8.0
2014-Oct-18 11:20 110 15 8.0